Location: Rottenacker
(48.2350°N, 9.6886°E)
Time: 12:08:10
(UTC+01:00)

ISS - Pass Details

Date: 11 January 2018
Orbit: 402 x 407 km, 51.6° (Epoch: 19 January)

Event Time Altitude Azimuth Distance (km) Brightness Sun altitude
Exits shadow 07:13:59 12° 279° (W) 1,342 -1.8 -9.0°
Maximum altitude 07:16:41 35° 214° (SW) 678 -2.8 -8.6°
Drops below altitude 10° 07:19:43 10° 147° (SSE) 1,462 0.0 -8.1°
Sets 07:21:53 0° 138° (SE) 2,320 1.4 -7.8°
